{"data":{"norad_id":69361,"epoch":"2026-09-20T02:42:15.247008Z","epoch_age_seconds":62490,"freshness":"FRESH","line1":"1 69361U 26123J   26263.11267647  .00020517  00000+0  61652-3 0  9999","line2":"2 69361  53.1576 143.3203 0001357  90.5343 269.5815 15.34409207 16817","mean_motion":15.34409207,"eccentricity":0.0001357,"inclination_deg":53.1576,"raan_deg":143.3203,"arg_perigee_deg":90.5343,"mean_anomaly_deg":269.5815,"bstar":0.00061652,"rev_number":1681,"period_min":93.847194961468,"perigee_km":461.74757689249,"apogee_km":463.60417350682,"semimajor_km":6840.8128751997,"source":"CELESTRAK","updated_at":"2026-09-20T09:00:44.165872Z"}}